Weather History for Nampa, ID

Change the Weather History Date:

Monday, October 1, 2012

  Actual Average (KBOI) Record (KBOI)
Temperature  
Mean Temperature 62 °F 59 °F  
Max Temperature 78 °F 72 °F 94 °F (1992)
Min Temperature 46 °F 46 °F 28 °F (1898)
Degree Days  
Heating Degree Days 3 7  
Month to date heating degree days 7  
Since 1 July heating degree days 128  
Cooling Degree Days 0 1  
Month to date cooling degree days 1  
Year to date cooling degree days 935  
Growing Degree Days 12 (Base 50)    
Moisture  
Dew Point 36 °F    
Average Humidity 40    
Maximum Humidity 66    
Minimum Humidity 18    
Precipitation  
Precipitation 0.00 in 0.02 in 0.42 in (1946)
Month to date precipitation 0.02  
Year to date precipitation 8.10  
Snow  
Snow 0.00 in 0.00 in 0.00 in (2006)
Since 1 July snowfall 0.0  
Snow Depth -    
Sea Level Pressure  
Sea Level Pressure 30.19 in    
Wind  
Wind Speed 2 mph (NNE)    
Max Wind Speed 6 mph    
Max Gust Speed -    
Visibility 10 miles    
Events      
T = Trace of Precipitation, MM = Missing Value Source: NWS Daily Summary

Daily Weather History Graph

Daily Weather History Graph

Search for Another Location

Airport:

Trip Planner

Search our weather history database for the weather conditions in past years. The results will help you decide how hot, cold, wet, or windy it might be!

Date:

Astronomy

Oct. 01, 2012 Rise Set
Actual Time 7:44 AM MDT 7:26 PM MDT
Civil Twilight 7:15 AM MDT 7:54 PM MDT
Nautical Twilight 6:42 AM MDT 8:27 PM MDT
Astronomical Twilight 6:08 AM MDT 9:01 PM MDT
Moon 8:00 PM MDT (10/1) 9:22 AM MDT (10/1)
Length of Visible Light 12h 38m
Length of Day
11h 41m
Full, 97% of the Moon is Illuminated
Oct 1
Full
Oct 8
Last Quarter
Oct 15
New
Oct 21
First Quarter
Oct 29
Full

Hourly Weather History & Observations

Time (MDT) Temp. Windchill Dew Point Humidity Pressure Visibility Wind Dir Wind Speed Gust Speed Precip Events Conditions
12:15 AM 57.2 °F - 37.4 °F 48% 30.23 in 10.0 mi Calm Calm - N/A   Scattered Clouds
12:35 AM 57.2 °F - 35.6 °F 44% 30.23 in 10.0 mi Calm Calm - N/A   Partly Cloudy
12:55 AM 55.4 °F - 35.6 °F 47% 30.24 in 10.0 mi West 3.5 mph - N/A   Clear
1:35 AM 51.8 °F - 35.6 °F 54% 30.24 in 10.0 mi SW 3.5 mph - N/A   Clear
1:55 AM 55.4 °F - 32.0 °F 41% 30.24 in 10.0 mi West 5.8 mph - N/A   Clear
2:55 AM 57.2 °F - 32.0 °F 38% 30.24 in 10.0 mi NW 4.6 mph - N/A   Mostly Cloudy
3:15 AM 55.4 °F - 32.0 °F 41% 30.24 in 10.0 mi WNW 5.8 mph - N/A   Partly Cloudy
3:55 AM 55.4 °F - 32.0 °F 41% 30.24 in 10.0 mi West 4.6 mph - N/A   Clear
4:15 AM 53.6 °F - 32.0 °F 44% 30.24 in 10.0 mi Calm Calm - N/A   Clear
4:35 AM 55.4 °F - 32.0 °F 41% 30.24 in 10.0 mi West 4.6 mph - N/A   Clear
4:55 AM 55.4 °F - 32.0 °F 41% 30.25 in 10.0 mi Calm Calm - N/A   Clear
5:15 AM 53.6 °F - 32.0 °F 44% 30.24 in 10.0 mi West 5.8 mph - N/A   Clear
5:35 AM 53.6 °F - 32.0 °F 44% 30.25 in 10.0 mi West 3.5 mph - N/A   Clear
5:55 AM 50.0 °F - 32.0 °F 50% 30.26 in 10.0 mi Calm Calm - N/A   Clear
6:15 AM 50.0 °F - 32.0 °F 50% 30.26 in 10.0 mi Calm Calm - N/A   Clear
6:35 AM 46.4 °F - 35.6 °F 66% 30.26 in 10.0 mi Calm Calm - N/A   Clear
6:55 AM 48.2 °F - 35.6 °F 62% 30.26 in 10.0 mi Calm Calm - N/A   Clear
7:15 AM 50.0 °F - 32.0 °F 50% 30.26 in 10.0 mi West 4.6 mph - N/A   Clear
7:35 AM 50.0 °F - 32.0 °F 50% 30.27 in 10.0 mi Calm Calm - N/A   Clear
7:55 AM 48.2 °F - 32.0 °F 54% 30.27 in 10.0 mi Calm Calm - N/A   Clear
8:15 AM 48.2 °F - 33.8 °F 58% 30.28 in 10.0 mi NNE 3.5 mph - N/A   Clear
8:35 AM 46.4 °F 45.2 °F 35.6 °F 66% 30.28 in 10.0 mi SE 3.5 mph - N/A   Clear
8:55 AM 50.0 °F - 35.6 °F 58% 30.29 in 10.0 mi Calm Calm - N/A   Clear
9:15 AM 53.6 °F - 35.6 °F 51% 30.29 in 10.0 mi Calm Calm - N/A   Clear
9:35 AM 55.4 °F - 35.6 °F 47% 30.29 in 10.0 mi East 3.5 mph - N/A   Clear
9:55 AM 57.2 °F - 37.4 °F 48% 30.29 in 10.0 mi SE 3.5 mph - N/A   Clear
10:15 AM 59.0 °F - 37.4 °F 45% 30.29 in 10.0 mi SE 3.5 mph - N/A   Clear
10:35 AM 60.8 °F - 35.6 °F 39% 30.29 in 10.0 mi Calm Calm - N/A   Clear
10:55 AM 62.6 °F - 35.6 °F 37% 30.29 in 10.0 mi Calm Calm - N/A   Clear
11:15 AM 64.4 °F - 35.6 °F 34% 30.29 in 10.0 mi Calm Calm - N/A   Clear
11:35 AM 66.2 °F - 35.6 °F 32% 30.29 in 10.0 mi Calm Calm - N/A   Clear
11:55 AM 66.2 °F - 35.6 °F 32% 30.28 in 10.0 mi Calm Calm - N/A   Clear
12:15 PM 68.0 °F - 35.6 °F 30% 30.27 in 10.0 mi Calm Calm - N/A   Clear
12:35 PM 69.8 °F - 35.6 °F 28% 30.26 in 10.0 mi SW 3.5 mph - N/A   Clear
1:15 PM 71.6 °F - 35.6 °F 27% 30.25 in 10.0 mi Calm Calm - N/A   Clear
1:55 PM 73.4 °F - 35.6 °F 25% 30.23 in 10.0 mi Calm Calm - N/A   Clear
2:15 PM 75.2 °F - 33.8 °F 22% 30.22 in 10.0 mi WNW 4.6 mph - N/A   Clear
2:35 PM 75.2 °F - 35.6 °F 24% 30.21 in 10.0 mi WSW 3.5 mph - N/A   Clear
2:55 PM 77.0 °F - 35.6 °F 22% 30.19 in 10.0 mi Calm Calm - N/A   Clear
3:15 PM 77.0 °F - 35.6 °F 22% 30.18 in 10.0 mi Calm Calm - N/A   Clear
3:35 PM 77.0 °F - 35.6 °F 22% 30.17 in 10.0 mi Calm Calm - N/A   Clear
3:55 PM 77.0 °F - 35.6 °F 22% 30.16 in 10.0 mi NNE 4.6 mph - N/A   Clear
4:15 PM 77.0 °F - 33.8 °F 21% 30.15 in 10.0 mi North 5.8 mph - N/A   Clear
4:35 PM 77.0 °F - 35.6 °F 22% 30.14 in 10.0 mi North 5.8 mph - N/A   Clear
4:55 PM 78.8 °F - 32.0 °F 18% 30.13 in 10.0 mi NE 4.6 mph - N/A   Clear
5:15 PM 78.8 °F - 33.8 °F 20% 30.12 in 10.0 mi NNE 3.5 mph - N/A   Clear
5:35 PM 78.8 °F - 35.6 °F 21% 30.11 in 10.0 mi NNE 5.8 mph - N/A   Clear
5:55 PM 78.8 °F - 32.0 °F 18% 30.11 in 10.0 mi NNE 5.8 mph - N/A   Clear
6:15 PM 78.8 °F - 35.6 °F 21% 30.10 in 10.0 mi Calm Calm - N/A   Clear
6:35 PM 77.0 °F - 35.6 °F 22% 30.09 in 10.0 mi Calm Calm - N/A   Clear
6:55 PM 77.0 °F - 37.4 °F 24% 30.09 in 10.0 mi Calm Calm - N/A   Clear
7:15 PM 73.4 °F - 41.0 °F 31% 30.08 in 10.0 mi Calm Calm - N/A   Clear
7:35 PM 69.8 °F - 42.8 °F 38% 30.08 in 10.0 mi Calm Calm - N/A   Clear
7:55 PM 66.2 °F - 44.6 °F 46% 30.08 in 10.0 mi Calm Calm - N/A   Clear
8:15 PM 66.2 °F - 42.8 °F 43% 30.08 in 10.0 mi East 3.5 mph - N/A   Clear
8:35 PM 64.4 °F - 42.8 °F 45% 30.07 in 10.0 mi Calm Calm - N/A   Clear
8:55 PM 60.8 °F - 44.6 °F 55% 30.07 in 10.0 mi SE 3.5 mph - N/A   Clear
9:15 PM 60.8 °F - 41.0 °F 48% 30.06 in 10.0 mi Calm Calm - N/A   Clear
9:35 PM 57.2 °F - 42.8 °F 59% 30.06 in 10.0 mi ESE 3.5 mph - N/A   Clear
9:55 PM 57.2 °F - 41.0 °F 55% 30.06 in 10.0 mi ESE 3.5 mph - N/A   Clear
10:15 PM 59.0 °F - 39.2 °F 48% 30.05 in 10.0 mi ESE 3.5 mph - N/A   Clear
10:35 PM 55.4 °F - 41.0 °F 58% 30.05 in 10.0 mi ESE 3.5 mph - N/A   Clear
10:55 PM 55.4 °F - 41.0 °F 58% 30.05 in 10.0 mi ENE 3.5 mph - N/A   Clear
11:15 PM 55.4 °F - 39.2 °F 54% 30.05 in 10.0 mi East 3.5 mph - N/A   Clear
11:55 PM 53.6 °F - 39.2 °F 58% 30.05 in 10.0 mi Calm Calm - N/A   Clear